User: anonymous   Login
Location: Unspecified
(0.0000°N, 0.0000°E)
Time: 12:40:50
(UTC+00:00)
Language:

IRS-1C - Orbit

View from above orbital plane
View from above orbital plane
View from above satellite
View from above satellite

Ground track
Ground track

The orbit data is extracted from the following two-line orbital elements,

1 23751U 95072A   18200.74909485 -.00000007  00000-0  16803-4 0  9998
2 23751  98.7295 143.8595 0001227  76.9917 283.1398 14.22569756170915
Epoch (UTC): 19 July 2018 17:58:41
Eccentricity: 0.0001227
inclination: 98.7295°
perigee height: 816 km
apogee height: 817 km
right ascension of ascending node: 143.8595°
argument of perigee: 76.9917°
revolutions per day: 14.22569756
mean anomaly at epoch: 283.1398°
orbit number at epoch: 17091

The dashed part of the orbit path shows where the satellite is in the earth's shadow,  

DLR